Location: Góry Miechowskie
(50.3599°N, 20.1803°E)
Time: 00:18:32
(UTC+00:00)

Vanguard 1 Rocket - Visible Passes

Search period start: 12 September 2024 00:00
Search period end: 22 September 2024 00:00
Orbit: 649 x 4220 km, 34.3° (Epoch: 11 September)

Date Brightness Start Highest point End Pass type
(mag) Time Alt. Az. Time Alt. Az. Time Alt. Az.
12 Sep 10.8 02:12:08 11° SSW 02:26:35 36° SE 02:47:30 10° E visible
13 Sep 10.7 01:04:06 15° S 01:13:41 25° SE 01:30:11 10° E visible
13 Sep 10.8 03:23:10 10° SW 03:40:08 47° SSE 04:03:43 10° E visible
13 Sep 10.9 23:56:02 12° SE 00:01:39 15° ESE 00:10:43 10° E visible
14 Sep 10.6 02:13:14 14° SSW 02:26:12 39° SSE 02:47:34 10° E visible
15 Sep 10.5 01:05:10 19° S 01:13:12 29° SE 01:30:33 10° E visible
15 Sep 10.7 03:23:27 10° SW 03:39:54 48° SSE 04:03:38 10° ESE visible
15 Sep 10.7 23:57:04 16° SE 00:01:06 18° SE 00:12:08 10° E visible
16 Sep 10.4 02:14:15 17° SSW 02:25:56 41° SSE 02:47:32 10° E visible
17 Sep 10.3 01:06:08 23° S 01:12:51 32° SE 01:30:42 10° E visible
17 Sep 10.6 03:23:52 10° WSW 03:39:45 49° S 04:03:27 10° ESE visible
17 Sep 10.5 23:58:01 20° SE 00:00:40 21° SE 00:12:57 10° E visible
18 Sep 10.3 02:15:12 20° SW 02:25:45 43° SSE 02:47:23 10° E visible
18 Sep 10.9 22:49:53 10° ESE 22:49:53 10° ESE 22:51:05 10° ESE visible
19 Sep 10.1 01:07:04 27° S 01:12:38 34° SSE 01:30:42 10° E visible
19 Sep 10.5 03:24:22 10° WSW 03:39:41 49° S 04:03:09 10° ESE visible
19 Sep 10.3 23:58:55 23° SE 00:00:22 24° SE 00:13:26 10° E visible
20 Sep 10.1 02:16:07 22° SW 02:25:42 45° SSE 02:47:08 10° ESE visible
20 Sep 10.8 22:50:47 13° ESE 22:50:47 13° ESE 22:54:28 10° ESE visible
21 Sep 9.9 01:07:58 31° S 01:12:32 37° SSE 01:30:36 10° E visible
21 Sep 10.5 03:25:09 11° WSW 03:39:40 48° S 04:02:44 10° ESE visible
